Location: �chenoz-la-M�line
(47.6009°N, 6.1354°E)
Time: 13:11:41
(UTC+00:00)

USA 305 - Pass Details

Date: 27 January 2021
Orbit: 565 x 578 km, 54.0° (Epoch: 28 February)

Event Time Altitude Azimuth Distance (km) Brightness Sun altitude
Exits shadow 04:50:18 67° 183° (S) 613 2.9 -23.1°
Maximum altitude 04:50:37 72° 147° (SSE) 597 2.9 -23.1°
Drops below altitude 10° 04:54:51 10° 62° (ENE) 1,863 6.3 -22.4°
Sets 04:57:06 0° 61° (ENE) 2,763 7.3 -22.0°
